• In Moldova, Republic
  • List of Countries
  • For 7 days
  • Water Temperature
  • Satellite Maps
  • Weather Map
  • Weather Widgets
  • user-avatar
    Login

    Hourly Weather Gjirokaster

    Today, 17 December, Sunday

    Time Temperature Precipitation Wind Pressure Humidity
    00:00 +2°C° 1.4 mm 3 mps 645 mmHg 95%
    01:00 +3°C° 0 mm 3 mps 644 mmHg 97%
    02:00 +2°C° 1.7 mm 3 mps 644 mmHg 96%
    03:00 +2°C° 1.7 mm 3 mps 644 mmHg 94%
    04:00 +2°C° 1.7 mm 3 mps 645 mmHg 92%
    05:00 +2°C° 0.7 mm 3 mps 645 mmHg 91%
    06:00 +2°C° 0.7 mm 2 mps 645 mmHg 91%
    07:00 +2°C° 0.7 mm 2 mps 645 mmHg 90%
    08:00 +2°C° 0.2 mm 2 mps 645 mmHg 87%
    09:00 +2°C° 0.2 mm 2 mps 646 mmHg 85%
    10:00 +3°C° 0.2 mm 2 mps 646 mmHg 82%
    11:00 +3°C° 0.2 mm 2 mps 646 mmHg 79%
    12:00 +4°C° 0.2 mm 2 mps 647 mmHg 75%
    13:00 +3°C° 0.2 mm 3 mps 647 mmHg 72%
    14:00 +3°C° 0.2 mm 2 mps 647 mmHg 75%
    15:00 +2°C° 0.2 mm 2 mps 647 mmHg 79%
    16:00 +2°C° 0.2 mm 2 mps 647 mmHg 82%
    17:00 +1°C° 0.2 mm 2 mps 647 mmHg 84%
    18:00 +1°C° 0.2 mm 2 mps 647 mmHg 87%
    19:00 -1°C° 0.2 mm 2 mps 648 mmHg 89%
    20:00 -1°C° 0.1 mm 2 mps 648 mmHg 89%
    21:00 -1°C° 0.1 mm 2 mps 648 mmHg 90%
    22:00 -2°C° 0.1 mm 2 mps 649 mmHg 90%
    23:00 -2°C° 0.1 mm 2 mps 649 mmHg 90%

    Tomorrow, 18 December, Monday

    Time Temperature Precipitation Wind Pressure Humidity
    00:00 -2°C° 0.1 mm 2 mps 649 mmHg 90%
    01:00 -2°C° 0.1 mm 2 mps 649 mmHg 91%
    02:00 -2°C° 0.2 mm 2 mps 649 mmHg 90%
    03:00 -2°C° 0.2 mm 2 mps 649 mmHg 90%
    04:00 -2°C° 0.2 mm 2 mps 649 mmHg 90%
    05:00 -3°C° 0.1 mm 2 mps 649 mmHg 89%
    06:00 -3°C° 0.1 mm 2 mps 649 mmHg 88%
    07:00 -3°C° 0.1 mm 2 mps 649 mmHg 88%
    08:00 -2°C° 0.1 mm 2 mps 649 mmHg 84%
    09:00 -1°C° 0.1 mm 2 mps 649 mmHg 80%
    10:00 -1°C° 0.1 mm 2 mps 650 mmHg 76%
    11:00 +1°C° 0.3 mm 2 mps 649 mmHg 75%
    12:00 0°C° 0.3 mm 3 mps 649 mmHg 75%
    13:00 0°C° 0.3 mm 3 mps 649 mmHg 75%
    14:00 -1°C° 0.3 mm 3 mps 648 mmHg 78%
    15:00 -3°C° 0.3 mm 4 mps 648 mmHg 81%
    16:00 -3°C° 0.3 mm 4 mps 648 mmHg 84%
    17:00 -4°C° 0.2 mm 4 mps 648 mmHg 85%
    18:00 -4°C° 0.2 mm 4 mps 649 mmHg 87%
    19:00 -5°C° 0.2 mm 4 mps 649 mmHg 89%
    20:00 -5°C° 0 mm 4 mps 649 mmHg 89%
    21:00 -6°C° 0 mm 3 mps 649 mmHg 89%
    22:00 -6°C° 0 mm 3 mps 650 mmHg 90%
    23:00 -6°C° 0 mm 3 mps 650 mmHg 89%

    Day after tomorrow, 19 December, Tuesday

    Time Temperature Precipitation Wind Pressure Humidity
    00:00 -7°C° 0 mm 3 mps 650 mmHg 88%
    01:00 -7°C° 0 mm 3 mps 650 mmHg 87%
    02:00 -7°C° 0 mm 3 mps 650 mmHg 85%
    03:00 -7°C° 0 mm 3 mps 650 mmHg 84%
    04:00 -8°C° 0 mm 3 mps 651 mmHg 82%
    05:00 -8°C° 0 mm 3 mps 651 mmHg 81%
    06:00 -7°C° 0 mm 2 mps 651 mmHg 80%
    07:00 -7°C° 0 mm 2 mps 652 mmHg 79%
    08:00 -6°C° 0 mm 2 mps 652 mmHg 73%
    09:00 -5°C° 0 mm 2 mps 653 mmHg 67%
    10:00 -3°C° 0 mm 2 mps 654 mmHg 60%
    11:00 -3°C° 0 mm 2 mps 654 mmHg 59%
    12:00 -3°C° 0 mm 2 mps 654 mmHg 57%
    13:00 -2°C° 0 mm 2 mps 654 mmHg 55%
    14:00 -3°C° 0 mm 2 mps 654 mmHg 59%
    15:00 -4°C° 0 mm 2 mps 654 mmHg 63%
    16:00 -4°C° 0 mm 2 mps 654 mmHg 67%
    17:00 -5°C° 0 mm 2 mps 654 mmHg 69%
    18:00 -5°C° 0 mm 2 mps 654 mmHg 71%
    19:00 -6°C° 0 mm 2 mps 654 mmHg 73%
    20:00 -6°C° 0 mm 2 mps 654 mmHg 73%
    21:00 -6°C° 0 mm 2 mps 654 mmHg 74%
    22:00 -6°C° 0 mm 2 mps 654 mmHg 74%
    23:00 -6°C° 0 mm 2 mps 654 mmHg 74%

    20 December, Wednesday

    Time Temperature Precipitation Wind Pressure Humidity
    00:00 -7°C° 0 mm 2 mps 654 mmHg 73%
    01:00 -7°C° 0 mm 2 mps 654 mmHg 73%
    02:00 -7°C° 0 mm 2 mps 654 mmHg 72%
    03:00 -7°C° 0 mm 2 mps 654 mmHg 72%
    04:00 -6°C° 0 mm 1 mps 654 mmHg 71%
    05:00 -7°C° 0 mm 2 mps 654 mmHg 71%
    06:00 -7°C° 0 mm 2 mps 654 mmHg 70%
    07:00 -7°C° 0 mm 2 mps 654 mmHg 69%
    08:00 -4°C° 0 mm 1 mps 654 mmHg 62%
    09:00 -2°C° 0 mm 1 mps 655 mmHg 56%
    10:00 -1°C° 0 mm 1 mps 655 mmHg 49%
    11:00 0°C° 0 mm 1 mps 655 mmHg 46%
    12:00 0°C° 0 mm 1 mps 655 mmHg 43%
    13:00 +1°C° 0 mm 1 mps 655 mmHg 40%
    14:00 0°C° 0 mm 1 mps 655 mmHg 46%
    15:00 -1°C° 0 mm 1 mps 655 mmHg 51%
    16:00 -4°C° 0 mm 2 mps 655 mmHg 57%
    17:00 -5°C° 0 mm 2 mps 655 mmHg 59%
    18:00 -5°C° 0 mm 2 mps 655 mmHg 62%
    19:00 -6°C° 0 mm 2 mps 655 mmHg 64%
    20:00 -6°C° 0 mm 2 mps 656 mmHg 65%
    21:00 -6°C° 0 mm 2 mps 656 mmHg 65%
    22:00 -6°C° 0 mm 2 mps 656 mmHg 66%
    23:00 -6°C° 0 mm 2 mps 656 mmHg 66%

    21 December, Thursday

    Time Temperature Precipitation Wind Pressure Humidity
    00:00 -6°C° 0 mm 2 mps 656 mmHg 65%
    01:00 -6°C° 0 mm 2 mps 656 mmHg 64%
    02:00 -6°C° 0 mm 2 mps 656 mmHg 64%
    03:00 -6°C° 0 mm 2 mps 656 mmHg 63%
    04:00 -6°C° 0 mm 2 mps 656 mmHg 62%
    05:00 -6°C° 0 mm 2 mps 656 mmHg 61%
    06:00 -6°C° 0 mm 2 mps 656 mmHg 60%
    07:00 -6°C° 0 mm 2 mps 656 mmHg 59%
    08:00 -5°C° 0 mm 2 mps 657 mmHg 54%
    09:00 -3°C° 0 mm 2 mps 657 mmHg 48%
    10:00 -2°C° 0 mm 2 mps 658 mmHg 43%
    11:00 -1°C° 0 mm 3 mps 658 mmHg 41%
    12:00 -1°C° 0 mm 3 mps 657 mmHg 39%
    13:00 0°C° 0 mm 3 mps 657 mmHg 38%
    14:00 -1°C° 0 mm 3 mps 657 mmHg 43%
    15:00 -2°C° 0 mm 3 mps 656 mmHg 49%
    16:00 -5°C° 0 mm 3 mps 656 mmHg 55%
    17:00 -5°C° 0 mm 3 mps 656 mmHg 57%
    18:00 -6°C° 0 mm 3 mps 656 mmHg 58%
    19:00 -7°C° 0 mm 3 mps 656 mmHg 60%
    20:00 -7°C° 0 mm 3 mps 656 mmHg 59%
    21:00 -7°C° 0 mm 3 mps 656 mmHg 59%
    22:00 -7°C° 0 mm 3 mps 656 mmHg 58%
    23:00 -6°C° 0 mm 2 mps 656 mmHg 57%

    22 December, Friday

    Time Temperature Precipitation Wind Pressure Humidity
    00:00 -6°C° 0 mm 2 mps 656 mmHg 56%
    01:00 -5°C° 0 mm 2 mps 655 mmHg 55%
    02:00 -5°C° 0 mm 2 mps 655 mmHg 53%
    03:00 -5°C° 0 mm 2 mps 655 mmHg 52%
    04:00 -6°C° 0 mm 3 mps 655 mmHg 50%
    05:00 -5°C° 0 mm 2 mps 655 mmHg 49%
    06:00 -5°C° 0 mm 2 mps 655 mmHg 47%
    07:00 -5°C° 0 mm 2 mps 655 mmHg 46%
    08:00 -3°C° 0 mm 2 mps 655 mmHg 44%
    09:00 -1°C° 0 mm 2 mps 655 mmHg 41%
    10:00 +3°C° 0 mm 1 mps 656 mmHg 39%
    11:00 +4°C° 0 mm 1 mps 655 mmHg 39%
    12:00 +5°C° 0 mm 1 mps 655 mmHg 39%
    13:00 +5°C° 0 mm 1 mps 655 mmHg 39%
    14:00 +4°C° 0 mm 1 mps 654 mmHg 44%
    15:00 +1°C° 0 mm 0 mps 654 mmHg 49%
    16:00 0°C° 0 mm 0 mps 653 mmHg 55%
    17:00 0°C° 0 mm 0 mps 653 mmHg 56%
    18:00 0°C° 0 mm 1 mps 653 mmHg 57%
    19:00 -1°C° 0 mm 1 mps 652 mmHg 58%
    20:00 -1°C° 0 mm 1 mps 652 mmHg 58%
    21:00 -1°C° 0 mm 1 mps 652 mmHg 58%
    22:00 -1°C° 0 mm 1 mps 652 mmHg 58%
    23:00 -1°C° 0 mm 1 mps 651 mmHg 58%
    Show more